Time,TemperatureF,DewpointF,PressureIn,WindDirection,WindDirectionDegrees,WindSpeedMPH,WindSpeedGustMPH,Humidity,HourlyPrecipIn,Conditions,Clouds,dailyrainin,SoftwareType,DateUTC
2013-07-03 00:00:00,73.8,72.6,30.03,East,90,0.0,-999.0,96,-99.99,,,0.00,Acu-Link.com,2013-07-03 04:00:00,
2013-07-03 00:16:00,73.8,72.6,30.02,East,90,0.0,-999.0,96,-99.99,,,0.00,Acu-Link.com,2013-07-03 04:16:00,
2013-07-03 00:31:00,73.6,72.4,30.03,East,90,0.0,-999.0,96,-99.99,,,0.00,Acu-Link.com,2013-07-03 04:31:00,
2013-07-03 00:46:00,73.6,72.7,30.02,East,90,0.0,-999.0,97,-99.99,,,0.00,Acu-Link.com,2013-07-03 04:46:00,
2013-07-03 01:01:00,73.6,72.7,30.02,East,90,0.0,-999.0,97,-99.99,,,0.00,Acu-Link.com,2013-07-03 05:01:00,
2013-07-03 01:17:00,73.4,72.5,30.02,East,90,0.0,-999.0,97,-99.99,,,0.00,Acu-Link.com,2013-07-03 05:17:00,
2013-07-03 01:47:00,72.9,72.3,30.01,East,90,0.0,-999.0,98,-99.99,,,0.00,Acu-Link.com,2013-07-03 05:47:00,
2013-07-03 02:18:00,72.7,72.4,30.02,East,90,0.0,-999.0,99,-99.99,,,0.00,Acu-Link.com,2013-07-03 06:18:00,
2013-07-03 02:33:00,72.7,72.4,30.01,East,90,0.0,-999.0,99,-99.99,,,0.00,Acu-Link.com,2013-07-03 06:33:00,
2013-07-03 02:49:00,72.7,72.4,30.00,East,90,0.0,-999.0,99,-99.99,,,0.00,Acu-Link.com,2013-07-03 06:49:00,
2013-07-03 03:19:00,72.7,72.4,30.01,ESE,112,0.0,-999.0,99,-99.99,,,0.00,Acu-Link.com,2013-07-03 07:19:00,
2013-07-03 03:35:00,72.7,72.4,30.01,South,180,0.0,-999.0,99,-99.99,,,0.00,Acu-Link.com,2013-07-03 07:35:00,
2013-07-03 03:50:00,72.7,72.4,30.01,SSE,157,0.0,-999.0,99,-99.99,,,0.00,Acu-Link.com,2013-07-03 07:50:00,
2013-07-03 04:37:00,72.5,71.9,30.01,SSW,202,0.0,-999.0,98,-99.99,,,0.00,Acu-Link.com,2013-07-03 08:37:00,
2013-07-03 04:52:00,72.1,71.8,30.02,SSE,157,0.0,-999.0,99,-99.99,,,0.01,Acu-Link.com,2013-07-03 08:52:00,
2013-07-03 05:07:00,71.8,71.5,30.02,SSW,202,0.0,-999.0,99,-99.99,,,0.02,Acu-Link.com,2013-07-03 09:07:00,
2013-07-03 05:38:00,71.1,70.8,30.02,SSW,202,0.0,-999.0,99,-99.99,,,0.02,Acu-Link.com,2013-07-03 09:38:00,
2013-07-03 05:53:00,70.9,70.6,30.03,SSW,202,0.0,-999.0,99,-99.99,,,0.02,Acu-Link.com,2013-07-03 09:53:00,
2013-07-03 06:08:00,70.7,70.4,30.03,SE,135,0.0,-999.0,99,-99.99,,,0.02,Acu-Link.com,2013-07-03 10:08:00,
2013-07-03 06:23:00,70.5,70.2,30.03,West,270,0.0,-999.0,99,-99.99,,,0.02,Acu-Link.com,2013-07-03 10:23:00,
2013-07-03 06:38:00,70.5,70.2,30.02,SW,225,0.0,-999.0,99,-99.99,,,0.02,Acu-Link.com,2013-07-03 10:38:00,
2013-07-03 07:24:00,70.7,70.4,30.04,SW,225,0.0,-999.0,99,-99.99,,,0.02,Acu-Link.com,2013-07-03 11:24:00,
2013-07-03 08:25:00,71.2,70.9,30.06,SSW,202,0.0,-999.0,99,-99.99,,,0.02,Acu-Link.com,2013-07-03 12:25:00,
2013-07-03 08:41:00,71.6,71.3,30.06,South,180,0.0,-999.0,99,-99.99,,,0.02,Acu-Link.com,2013-07-03 12:41:00,
2013-07-03 08:56:00,72.0,71.7,30.07,SSW,202,0.0,-999.0,99,-99.99,,,0.02,Acu-Link.com,2013-07-03 12:56:00,
2013-07-03 09:27:00,73.4,72.8,30.07,SSW,202,0.0,-999.0,98,-99.99,,,0.02,Acu-Link.com,2013-07-03 13:27:00,
2013-07-03 09:57:00,74.1,72.9,30.07,SW,225,0.0,-999.0,96,-99.99,,,0.02,Acu-Link.com,2013-07-03 13:57:00,
2013-07-03 10:13:00,74.5,73.3,30.07,NW,315,0.0,-999.0,96,-99.99,,,0.02,Acu-Link.com,2013-07-03 14:13:00,
2013-07-03 10:28:00,74.7,73.5,30.07,SSW,202,0.0,-999.0,96,-99.99,,,0.02,Acu-Link.com,2013-07-03 14:28:00,
2013-07-03 10:43:00,75.0,73.5,30.07,South,180,0.0,-999.0,95,-99.99,,,0.02,Acu-Link.com,2013-07-03 14:43:00,
2013-07-03 10:58:00,75.4,73.5,30.07,West,270,0.0,-999.0,94,-99.99,,,0.02,Acu-Link.com,2013-07-03 14:58:00,
2013-07-03 11:14:00,75.9,73.7,30.08,SSW,202,0.0,-999.0,93,-99.99,,,0.02,Acu-Link.com,2013-07-03 15:14:00,
2013-07-03 11:29:00,76.1,73.3,30.07,SE,135,0.0,-999.0,91,-99.99,,,0.02,Acu-Link.com,2013-07-03 15:29:00,
2013-07-03 11:44:00,76.3,74.1,30.08,SSW,202,0.0,-999.0,93,-99.99,,,0.02,Acu-Link.com,2013-07-03 15:44:00,
2013-07-03 11:59:00,76.3,74.1,30.07,SSW,202,0.0,-999.0,93,-99.99,,,0.02,Acu-Link.com,2013-07-03 15:59:00,
2013-07-03 12:14:00,76.8,74.0,30.08,NNW,337,0.0,-999.0,91,-99.99,,,0.02,Acu-Link.com,2013-07-03 16:14:00,
2013-07-03 12:30:00,77.0,74.5,30.07,SSW,202,0.0,-999.0,92,-99.99,,,0.02,Acu-Link.com,2013-07-03 16:30:00,
2013-07-03 12:45:00,77.7,75.2,30.05,SSW,202,0.0,-999.0,92,-99.99,,,0.02,Acu-Link.com,2013-07-03 16:45:00,
2013-07-03 13:00:00,78.6,74.7,30.05,South,180,0.0,-999.0,88,-99.99,,,0.02,Acu-Link.com,2013-07-03 17:00:00,
2013-07-03 13:31:00,80.2,74.6,30.04,SSE,157,0.0,-999.0,83,-99.99,,,0.02,Acu-Link.com,2013-07-03 17:31:00,
2013-07-03 13:46:00,81.0,75.3,30.03,West,270,1.7,-999.0,83,-99.99,,,0.02,Acu-Link.com,2013-07-03 17:46:00,
2013-07-03 14:02:00,82.6,75.4,30.03,SSW,202,0.0,-999.0,79,-99.99,,,0.02,Acu-Link.com,2013-07-03 18:02:00,
2013-07-03 14:17:00,81.9,75.1,30.02,SSW,202,1.7,-999.0,80,-99.99,,,0.02,Acu-Link.com,2013-07-03 18:17:00,
2013-07-03 14:32:00,82.9,75.3,30.03,SE,135,2.2,-999.0,78,-99.99,,,0.02,Acu-Link.com,2013-07-03 18:32:00,
2013-07-03 14:48:00,82.8,74.4,30.02,SSE,157,0.0,-999.0,76,-99.99,,,0.02,Acu-Link.com,2013-07-03 18:48:00,
2013-07-03 15:18:00,83.3,74.1,30.01,South,180,0.0,-999.0,74,-99.99,,,0.02,Acu-Link.com,2013-07-03 19:18:00,
2013-07-03 15:33:00,79.5,70.9,30.01,ESE,112,1.1,-999.0,75,-99.99,,,0.02,Acu-Link.com,2013-07-03 19:33:00,
2013-07-03 15:49:00,77.7,71.8,30.01,East,90,0.0,-999.0,82,-99.99,,,0.02,Acu-Link.com,2013-07-03 19:49:00,
2013-07-03 16:35:00,74.7,74.1,30.04,SW,225,2.2,-999.0,98,-99.99,,,0.09,Acu-Link.com,2013-07-03 20:35:00,
2013-07-03 16:50:00,72.5,71.6,30.05,South,180,1.1,-999.0,97,-99.99,,,0.27,Acu-Link.com,2013-07-03 20:50:00,
2013-07-03 17:05:00,71.8,71.2,30.05,SSE,157,0.0,-999.0,98,-99.99,,,0.31,Acu-Link.com,2013-07-03 21:05:00,
2013-07-03 17:51:00,71.2,70.9,30.06,West,270,0.0,-999.0,99,-99.99,,,0.55,Acu-Link.com,2013-07-03 21:51:00,
2013-07-03 18:06:00,71.1,70.8,30.06,ESE,112,0.0,-999.0,99,-99.99,,,0.65,Acu-Link.com,2013-07-03 22:06:00,
2013-07-03 18:21:00,70.9,70.6,30.07,West,270,1.7,-999.0,99,-99.99,,,0.72,Acu-Link.com,2013-07-03 22:21:00,
2013-07-03 18:37:00,69.8,69.5,30.08,NW,315,0.0,-999.0,99,-99.99,,,0.77,Acu-Link.com,2013-07-03 22:37:00,
2013-07-03 18:52:00,69.4,69.1,30.08,NNW,337,0.0,-999.0,99,-99.99,,,0.79,Acu-Link.com,2013-07-03 22:52:00,
2013-07-03 19:07:00,68.9,68.6,30.07,NW,315,0.0,-999.0,99,-99.99,,,0.79,Acu-Link.com,2013-07-03 23:07:00,
2013-07-03 19:53:00,68.9,68.6,30.08,ESE,112,0.0,-999.0,99,-99.99,,,0.80,Acu-Link.com,2013-07-03 23:53:00,
2013-07-03 20:08:00,68.9,68.6,30.08,SSW,202,0.0,-999.0,99,-99.99,,,0.80,Acu-Link.com,2013-07-04 00:08:00,
2013-07-03 20:39:00,68.7,68.4,30.07,NNW,337,0.0,-999.0,99,-99.99,,,0.81,Acu-Link.com,2013-07-04 00:39:00,
2013-07-03 21:09:00,68.5,68.2,30.07,SE,135,0.0,-999.0,99,-99.99,,,0.82,Acu-Link.com,2013-07-04 01:09:00,
2013-07-03 21:24:00,68.5,68.2,30.06,NNW,337,0.0,-999.0,99,-99.99,,,0.82,Acu-Link.com,2013-07-04 01:24:00,
2013-07-03 21:40:00,68.7,68.4,30.06,NNW,337,0.0,-999.0,99,-99.99,,,0.82,Acu-Link.com,2013-07-04 01:40:00,
2013-07-03 21:55:00,68.7,68.4,30.07,WNW,292,0.0,-999.0,99,-99.99,,,0.82,Acu-Link.com,2013-07-04 01:55:00,
2013-07-03 22:10:00,68.7,68.4,30.08,SSE,157,0.0,-999.0,99,-99.99,,,0.82,Acu-Link.com,2013-07-04 02:10:00,
2013-07-03 22:25:00,68.7,68.4,30.09,NW,315,0.0,-999.0,99,-99.99,,,0.82,Acu-Link.com,2013-07-04 02:25:00,
2013-07-03 22:41:00,68.7,68.4,30.09,NE,45,0.0,-999.0,99,-99.99,,,0.82,Acu-Link.com,2013-07-04 02:41:00,
2013-07-03 22:56:00,68.7,68.4,30.10,NE,45,0.0,-999.0,99,-99.99,,,0.82,Acu-Link.com,2013-07-04 02:56:00,
2013-07-03 23:11:00,68.7,68.4,30.10,ESE,112,0.0,-999.0,99,-99.99,,,0.82,Acu-Link.com,2013-07-04 03:11:00,
2013-07-03 23:27:00,68.7,68.4,30.11,West,270,0.0,-999.0,99,-99.99,,,0.82,Acu-Link.com,2013-07-04 03:27:00,
2013-07-03 23:42:00,68.7,68.4,30.11,SSW,202,0.0,-999.0,99,-99.99,,,0.85,Acu-Link.com,2013-07-04 03:42:00,
2013-07-03 23:57:00,68.7,68.4,30.10,East,90,0.0,-999.0,99,-99.99,,,0.86,Acu-Link.com,2013-07-04 03:57:00,